Location: Newark
(50.9600°S, 168.4275°W)
Time: 07:07:29
(UTC+00:00)

Envisat - Visible Passes

Search period start: 28 January 2020 00:00
Search period end: 07 February 2020 00:00
Orbit: 764 x 766 km, 98.1° (Epoch: 28 January)

Date Brightness Start Highest point End Pass type
(mag) Time Alt. Az. Time Alt. Az. Time Alt. Az.
28 Jan 6.7 14:54:53 10° ESE 14:57:08 13° SE 14:59:23 10° SSE visible
29 Jan 6.2 07:52:58 10° SSW 07:56:17 18° SW 07:59:35 10° W visible
31 Jan 6.7 08:19:36 10° SSW 08:21:22 12° SW 08:23:08 10° WSW visible
31 Jan 6.9 14:44:46 10° ESE 14:46:02 11° SE 14:47:17 10° SSE visible
01 Feb 6.1 07:41:24 10° S 07:45:09 21° WSW 07:48:52 10° WNW visible
02 Feb 6.4 15:08:00 10° E 15:11:05 16° SE 15:14:11 10° SSE visible
03 Feb 6.4 08:07:42 10° SSW 08:10:15 14° SW 08:12:49 10° W visible
04 Feb 5.9 07:29:54 10° S 07:33:59 24° WSW 07:38:02 10° WNW visible
05 Feb 6.6 14:57:26 10° E 14:59:57 14° SE 15:02:28 10° SSE visible
06 Feb 6.3 07:56:00 10° SSW 07:59:07 16° SW 08:02:15 10° W visible
